When you browse on this site, cookies collect data to enhance your experience and personalize the content and advertising you see.
Visit our Privacy Policy to learn more. By continuing to use the site, you agree to this use of cookies and data.
  • In Lithuania
  • List of Countries
  • For 7 days
  • Water Temperature
  • Satellite Maps
  • Weather Map
  • Weather Widgets
  • user-avatar
    Login

    Hourly Weather Lvovo

    Today, 19 June, Wednesday

    Time Temperature Precipitation Wind Pressure Humidity
    00:00 +17°C° 0 mm 3 mps 742 mmHg 88%
    01:00 +17°C° 0 mm 3 mps 743 mmHg 88%
    02:00 +16°C° 0 mm 3 mps 743 mmHg 89%
    03:00 +16°C° 0 mm 3 mps 743 mmHg 89%
    04:00 +16°C° 0 mm 2 mps 743 mmHg 89%
    05:00 +16°C° 0 mm 2 mps 743 mmHg 89%
    06:00 +17°C° 0 mm 2 mps 743 mmHg 88%
    07:00 +18°C° 0 mm 3 mps 744 mmHg 84%
    08:00 +19°C° 0 mm 3 mps 744 mmHg 80%
    09:00 +21°C° 0 mm 3 mps 744 mmHg 75%
    10:00 +22°C° 0 mm 3 mps 744 mmHg 70%
    11:00 +24°C° 0 mm 3 mps 744 mmHg 65%
    12:00 +25°C° 0 mm 3 mps 744 mmHg 60%
    13:00 +25°C° 0 mm 3 mps 744 mmHg 58%
    14:00 +25°C° 0 mm 3 mps 744 mmHg 57%
    15:00 +26°C° 0 mm 3 mps 744 mmHg 55%
    16:00 +25°C° 0 mm 3 mps 744 mmHg 60%
    17:00 +25°C° 0 mm 2 mps 744 mmHg 65%
    18:00 +25°C° 0 mm 2 mps 744 mmHg 70%
    19:00 +23°C° 0 mm 2 mps 744 mmHg 72%
    20:00 +21°C° 0 mm 1 mps 744 mmHg 74%
    21:00 +20°C° 0 mm 1 mps 744 mmHg 75%
    22:00 +19°C° 0 mm 1 mps 745 mmHg 74%
    23:00 +19°C° 0 mm 1 mps 745 mmHg 73%

    Tomorrow, 20 June, Thursday

    Time Temperature Precipitation Wind Pressure Humidity
    00:00 +18°C° 0 mm 1 mps 745 mmHg 72%
    01:00 +18°C° 0 mm 1 mps 745 mmHg 74%
    02:00 +16°C° 0 mm 1 mps 745 mmHg 75%
    03:00 +16°C° 0 mm 1 mps 745 mmHg 77%
    04:00 +18°C° 0 mm 1 mps 745 mmHg 78%
    05:00 +18°C° 0 mm 1 mps 746 mmHg 79%
    06:00 +19°C° 0 mm 1 mps 746 mmHg 80%
    07:00 +21°C° 0 mm 1 mps 746 mmHg 76%
    08:00 +22°C° 0 mm 1 mps 746 mmHg 72%
    09:00 +24°C° 0 mm 1 mps 746 mmHg 67%
    10:00 +25°C° 0 mm 1 mps 746 mmHg 63%
    11:00 +26°C° 0 mm 1 mps 746 mmHg 58%
    12:00 +27°C° 0 mm 1 mps 746 mmHg 54%
    13:00 +27°C° 0 mm 1 mps 746 mmHg 53%
    14:00 +27°C° 0 mm 1 mps 746 mmHg 51%
    15:00 +27°C° 0 mm 1 mps 746 mmHg 50%
    16:00 +27°C° 0 mm 1 mps 746 mmHg 53%
    17:00 +27°C° 0 mm 1 mps 746 mmHg 57%
    18:00 +27°C° 0 mm 1 mps 746 mmHg 61%
    19:00 +25°C° 0 mm 1 mps 746 mmHg 63%
    20:00 +23°C° 0 mm 1 mps 746 mmHg 65%
    21:00 +21°C° 0 mm 1 mps 746 mmHg 68%
    22:00 +20°C° 0 mm 1 mps 746 mmHg 69%
    23:00 +20°C° 0 mm 1 mps 746 mmHg 70%

    Day after tomorrow, 21 June, Friday

    Time Temperature Precipitation Wind Pressure Humidity
    00:00 +19°C° 0 mm 1 mps 746 mmHg 72%
    01:00 +19°C° 0 mm 1 mps 746 mmHg 74%
    02:00 +18°C° 0 mm 1 mps 746 mmHg 76%
    03:00 +18°C° 0 mm 1 mps 746 mmHg 78%
    04:00 +19°C° 0 mm 1 mps 747 mmHg 79%
    05:00 +18°C° 0 mm 0 mps 747 mmHg 79%
    06:00 +19°C° 0 mm 0 mps 747 mmHg 80%
    07:00 +22°C° 0 mm 1 mps 747 mmHg 76%
    08:00 +23°C° 0 mm 1 mps 747 mmHg 72%
    09:00 +24°C° 0 mm 2 mps 747 mmHg 68%
    10:00 +25°C° 0 mm 2 mps 747 mmHg 64%
    11:00 +26°C° 0 mm 2 mps 747 mmHg 59%
    12:00 +27°C° 0 mm 2 mps 747 mmHg 55%
    13:00 +27°C° 0 mm 2 mps 747 mmHg 56%
    14:00 +27°C° 0 mm 2 mps 747 mmHg 57%
    15:00 +27°C° 0 mm 3 mps 746 mmHg 57%
    16:00 +27°C° 0 mm 2 mps 746 mmHg 61%
    17:00 +27°C° 0 mm 2 mps 746 mmHg 65%
    18:00 +27°C° 0 mm 2 mps 746 mmHg 69%
    19:00 +25°C° 0 mm 2 mps 746 mmHg 71%
    20:00 +24°C° 0 mm 2 mps 746 mmHg 73%
    21:00 +22°C° 0 mm 1 mps 746 mmHg 74%
    22:00 +20°C° 0 mm 2 mps 746 mmHg 76%
    23:00 +20°C° 0 mm 2 mps 746 mmHg 78%

    22 June, Saturday

    Time Temperature Precipitation Wind Pressure Humidity
    00:00 +19°C° 0 mm 2 mps 746 mmHg 79%
    01:00 +19°C° 0 mm 2 mps 746 mmHg 81%
    02:00 +18°C° 0 mm 2 mps 746 mmHg 82%
    03:00 +18°C° 0 mm 2 mps 746 mmHg 83%
    04:00 +18°C° 0 mm 2 mps 746 mmHg 80%
    05:00 +19°C° 0 mm 2 mps 747 mmHg 81%
    06:00 +19°C° 0 mm 2 mps 747 mmHg 82%
    07:00 +21°C° 0 mm 2 mps 747 mmHg 78%
    08:00 +23°C° 0 mm 2 mps 747 mmHg 75%
    09:00 +25°C° 0 mm 3 mps 747 mmHg 71%
    10:00 +26°C° 0 mm 3 mps 747 mmHg 67%
    11:00 +27°C° 0 mm 3 mps 747 mmHg 62%
    12:00 +28°C° 0 mm 3 mps 747 mmHg 58%
    13:00 +28°C° 0 mm 4 mps 747 mmHg 59%
    14:00 +28°C° 0 mm 4 mps 746 mmHg 60%
    15:00 +28°C° 0 mm 4 mps 746 mmHg 61%
    16:00 +28°C° 0 mm 4 mps 746 mmHg 65%
    17:00 +28°C° 0 mm 3 mps 746 mmHg 68%
    18:00 +28°C° 0 mm 3 mps 746 mmHg 71%
    19:00 +26°C° 0 mm 3 mps 746 mmHg 74%
    20:00 +24°C° 0 mm 3 mps 746 mmHg 77%
    21:00 +23°C° 0 mm 2 mps 746 mmHg 80%
    22:00 +21°C° 0 mm 3 mps 746 mmHg 80%
    23:00 +21°C° 0 mm 3 mps 746 mmHg 81%

    23 June, Sunday

    Time Temperature Precipitation Wind Pressure Humidity
    00:00 +20°C° 0 mm 3 mps 746 mmHg 81%
    01:00 +20°C° 0 mm 3 mps 746 mmHg 80%
    02:00 +19°C° 0 mm 3 mps 746 mmHg 80%
    03:00 +19°C° 0 mm 3 mps 746 mmHg 79%
    04:00 +19°C° 0 mm 3 mps 746 mmHg 81%
    05:00 +20°C° 0 mm 3 mps 747 mmHg 82%
    06:00 +20°C° 0 mm 2 mps 747 mmHg 83%
    07:00 +23°C° 0 mm 2 mps 747 mmHg 80%
    08:00 +24°C° 0 mm 2 mps 747 mmHg 76%
    09:00 +26°C° 0 mm 3 mps 747 mmHg 73%
    10:00 +27°C° 0.1 mm 3 mps 747 mmHg 68%
    11:00 +28°C° 0.1 mm 3 mps 747 mmHg 63%
    12:00 +29°C° 0.1 mm 3 mps 747 mmHg 58%
    13:00 +29°C° 0 mm 3 mps 747 mmHg 58%
    14:00 +29°C° 0 mm 3 mps 747 mmHg 57%
    15:00 +29°C° 0 mm 3 mps 747 mmHg 57%
    16:00 +29°C° 0 mm 3 mps 746 mmHg 60%
    17:00 +29°C° 0 mm 2 mps 746 mmHg 63%
    18:00 +29°C° 0 mm 2 mps 746 mmHg 67%
    19:00 +27°C° 0 mm 2 mps 746 mmHg 68%
    20:00 +25°C° 0 mm 2 mps 746 mmHg 70%
    21:00 +23°C° 0 mm 2 mps 746 mmHg 72%
    22:00 +21°C° 0 mm 2 mps 746 mmHg 72%
    23:00 +21°C° 0 mm 2 mps 746 mmHg 72%

    24 June, Monday

    Time Temperature Precipitation Wind Pressure Humidity
    00:00 +20°C° 0 mm 2 mps 746 mmHg 72%
    01:00 +21°C° 0 mm 1 mps 746 mmHg 73%
    02:00 +21°C° 0 mm 1 mps 746 mmHg 74%
    03:00 +21°C° 0 mm 1 mps 746 mmHg 75%
    04:00 +21°C° 0 mm 1 mps 746 mmHg 77%
    05:00 +21°C° 0 mm 1 mps 746 mmHg 78%
    06:00 +22°C° 0 mm 1 mps 746 mmHg 80%
    07:00 +23°C° 0 mm 2 mps 746 mmHg 76%
    08:00 +25°C° 0 mm 2 mps 746 mmHg 73%
    09:00 +26°C° 0 mm 2 mps 746 mmHg 69%
    10:00 +27°C° 0 mm 3 mps 746 mmHg 65%
    11:00 +28°C° 0 mm 3 mps 746 mmHg 60%
    12:00 +29°C° 0 mm 3 mps 746 mmHg 56%
    13:00 +29°C° 0.1 mm 4 mps 746 mmHg 57%
    14:00 +29°C° 0.1 mm 4 mps 746 mmHg 59%
    15:00 +29°C° 0.1 mm 4 mps 745 mmHg 61%
    16:00 +29°C° 0.1 mm 3 mps 745 mmHg 64%
    17:00 +29°C° 0.1 mm 3 mps 745 mmHg 67%
    18:00 +28°C° 0.1 mm 3 mps 745 mmHg 70%
    19:00 +27°C° 0.2 mm 2 mps 744 mmHg 74%
    20:00 +25°C° 0.2 mm 2 mps 744 mmHg 78%
    21:00 +23°C° 0.2 mm 2 mps 744 mmHg 82%
    22:00 +23°C° 0.3 mm 2 mps 744 mmHg 84%
    23:00 +21°C° 0.3 mm 2 mps 744 mmHg 86%
    Show more